Theta_e
336 336 338 341 341 342 342 339 336 329 330 337 337 344 345 345 346 345 343 344 344 344 342 341 342 345 349 351 351 352 354 354 354 354 353 354 356 358
332 328 328 331 334 335 340 339 341 339 334 336 338 340 345 347 347 346 346 346 344 342 342 340 340 342 345 347 348 347 350 350 350 350 349 349 352 353
323 324 323 325 327 328 332 336 337 339 335 337 339 342 341 342 345 345 346 344 343 340 339 339 337 338 341 343 344 345 346 346 347 347 348 349 349 351
321 321 322 327 323 323 327 329 330 335 337 333 334 338 339 341 341 340 343 345 342 343 338 336 336 337 338 338 338 338 338 339 341 342 344 346 348 348
319 320 322 323 322 322 323 325 327 334 335 335 334 336 339 341 340 340 341 342 345 345 339 338 339 337 336 334 334 332 329 330 332 334 336 339 343 346
320 322 323 323 323 324 325 324 328 329 331 332 331 331 334 336 337 336 335 338 340 347 348 346 343 339 336 334 333 332 327 324 324 326 328 330 334 338
321 324 327 330 331 330 328 326 326 325 326 326 327 328 329 330 329 333 333 334 335 339 340 342 342 340 341 336 339 338 332 328 325 324 323 324 325 328
318 322 325 325 324 326 327 329 330 324 323 323 324 324 326 328 331 331 330 328 326 336 335 336 340 337 338 338 338 335 331 330 327 326 323 323 324 323
317 324 323 323 322 321 323 326 326 329 330 326 324 324 326 328 329 328 327 328 327 333 333 329 333 334 339 342 332 332 331 329 327 326 324 324 322 320
315 322 320 318 321 319 319 319 320 322 323 325 323 325 326 326 329 330 328 327 326 328 332 328 332 332 336 336 332 330 328 326 325 326 325 322 317 316
313 317 318 316 317 318 317 316 317 320 326 326 326 326 325 324 327 324 322 321 321 323 329 323 326 326 329 332 337 330 327 323 323 322 323 322 319 313
311 314 319 317 316 316 317 313 313 316 319 319 319 321 322 322 327 328 327 320 319 318 324 322 324 325 322 324 330 331 331 324 318 317 317 316 314 322
310 311 312 317 313 313 315 313 312 315 318 315 314 314 314 315 316 319 325 325 321 318 319 324 317 318 321 322 324 326 325 327 329 324 316 315 314 320
307 307 310 311 310 312 315 314 313 313 311 310 309 309 309 309 310 311 313 320 323 319 315 313 310 310 312 313 314 319 320 318 316 313 315 315 316 313
305 308 310 310 312 312 315 316 314 308 307 306 305 305 306 306 306 306 307 309 308 310 311 309 307 308 311 309 310 311 310 314 309 308 310 313 316 320
303 303 310 313 312 309 308 310 307 306 304 304 303 303 303 302 302 303 301 302 301 301 304 307 307 305 304 306 310 304 305 303 305 304 307 307 310 314
300 303 304 303 303 301 301 302 302 302 301 300 300 299 300 299 299 300 299 297 296 296 297 299 302 302 301 303 301 301 301 300 300 302 302 302 304 306
298 299 300 301 301 301 300 300 300 303 300 300 300 299 299 299 298 298 298 296 295 295 295 296 297 297 297 298 306 298 298 297 299 300 299 298 300 303
297 298 300 300 301 300 300 300 300 300 300 299 300 300 299 298 298 297 297 296 296 295 296 296 295 294 292 293 297 306 298 300 297 297 298 298 299 302
298 298 300 300 301 300 300 300 301 300 300 300 300 301 299 298 297 297 296 295 295 295 295 295 295 295 293 294 296 300 304 299 298 299 300 301 303 308
298 300 301 301 300 301 301 301 301 301 300 300 301 301 300 298 297 297 297 299 298 295 294 294 297 304 299 298 296 297 300 304 304 301 301 299 298 299
298 298 301 301 301 301 302 301 301 301 301 299 300 300 300 299 298 297 297 296 295 295 296 297 297 297 295 295 296 297 299 301 303 307 308 306 301 297
300 300 301 302 302 301 301 301 301 302 301 300 300 300 300 299 298 297 297 297 296 295 295 295 295 295 296 296 297 297 298 299 300 299 300 307 308 309
Wind_Speed
4 4 2 2 3 3 2 3 2 3 3 2 2 2 3 4 7 4 6 7 10 8 9 8 8 7 9 12 13 13 15 16 16 17 19 18 20 20
3 5 4 3 4 4 3 2 2 3 4 2 3 4 4 3 6 6 6 9 8 8 10 10 8 11 11 12 12 14 14 14 14 14 14 16 17 18
4 5 5 4 4 4 4 3 2 2 5 3 2 2 3 5 6 4 5 5 5 9 11 11 12 10 10 10 12 13 14 14 15 14 14 14 15 17
5 5 5 4 5 4 3 4 3 4 3 6 2 2 4 4 5 5 5 5 4 8 11 11 11 11 13 12 12 13 13 14 15 16 16 15 16 18
5 5 5 5 5 3 3 4 3 3 4 4 4 2 3 2 3 3 4 4 4 9 13 14 13 13 14 14 15 14 14 15 16 16 17 17 17 17
5 5 5 5 5 5 4 5 4 4 3 3 3 3 3 2 2 2 4 2 4 4 6 8 5 7 11 13 15 14 13 12 11 13 14 15 15 16
5 5 4 9 10 6 3 4 4 3 3 3 3 3 3 3 2 2 3 3 4 4 3 2 2 2 4 10 11 14 12 11 12 13 13 14 15 15
5 5 4 8 9 11 11 9 4 2 3 2 2 3 5 3 2 2 2 2 3 1 3 4 2 3 4 3 8 11 8 12 14 14 15 16 16 16
5 4 5 6 8 7 10 10 8 7 2 4 3 2 4 2 4 3 2 2 3 4 3 4 1 3 3 4 8 11 10 10 11 13 12 15 14 13
5 5 5 6 6 6 5 6 6 5 5 3 2 3 3 6 5 2 2 3 4 3 1 3 3 2 4 3 4 3 8 9 9 11 13 14 13 14
5 5 4 5 11 7 5 6 6 6 6 8 5 5 7 9 8 1 2 1 2 3 4 3 3 3 3 3 4 8 8 2 6 11 13 15 14 9
5 5 7 7 8 6 3 4 5 4 6 6 5 5 7 7 10 5 3 2 2 3 4 5 4 3 4 1 3 4 5 9 10 6 8 9 8 3
4 4 4 9 7 7 5 3 3 4 4 4 4 4 5 5 5 6 5 3 2 3 6 2 4 4 2 4 3 3 5 6 7 7 12 11 7 7
3 3 5 10 9 7 5 7 8 5 4 4 4 4 4 5 5 5 6 5 5 5 5 6 3 2 2 3 4 4 4 4 5 6 6 9 5 6
3 7 10 7 7 5 6 6 6 4 3 4 4 3 3 4 4 4 5 6 5 6 6 6 3 4 1 2 4 3 4 4 5 4 5 5 5 5
5 5 5 3 4 4 4 5 3 3 3 2 2 2 3 4 5 4 4 5 4 5 6 7 8 5 3 2 0 2 2 3 5 5 5 5 4 4
5 2 3 3 3 3 2 3 3 4 3 1 2 2 3 3 3 3 3 3 3 4 5 5 6 6 4 3 2 2 3 2 3 4 4 6 6 5
1 1 1 2 2 1 1 2 2 2 1 0 0 0 1 1 2 3 2 2 2 2 3 3 4 5 4 4 3 2 3 3 4 4 3 4 7 6
3 3 3 3 3 4 3 2 2 2 1 2 1 2 2 2 1 1 1 1 2 2 3 2 2 1 3 5 5 5 2 7 3 3 4 4 9 10
3 3 4 5 5 5 3 3 2 2 2 2 2 3 4 3 2 3 2 2 3 3 3 3 3 4 3 5 7 8 11 6 5 8 8 7 9 18
4 4 5 5 5 4 4 4 4 3 3 3 3 3 4 3 4 4 4 6 5 3 4 5 5 12 4 3 5 8 6 14 12 9 8 8 10 11
6 6 6 5 5 5 5 5 4 4 4 4 5 5 5 5 5 5 4 4 4 4 6 7 6 4 2 4 10 12 9 7 10 16 18 17 8 8
7 6 6 5 5 5 5 5 5 5 5 5 5 5 4 4 5 4 4 5 5 5 5 7 4 3 6 7 13 11 16 14 10 10 11 17 22 24
Wind_Direction
1 3 355 1 359 330 259 218 226 292 283 298 281 282 230 224 244 239 247 229 228 244 256 246 244 234 248 245 245 227 218 221 224 222 224 227 226 227
13 14 2 348 350 346 335 292 231 246 275 225 241 257 277 267 250 249 253 269 257 237 242 240 245 247 241 234 239 235 217 218 223 223 221 219 217 225
356 355 333 330 327 332 326 326 297 249 275 297 250 273 276 274 281 263 269 260 267 235 240 253 260 253 232 234 232 230 228 220 222 223 219 212 217 218
342 342 323 327 321 310 306 311 290 281 260 278 273 278 242 273 265 286 268 267 255 273 266 260 262 257 250 242 238 228 227 224 226 222 223 222 219 217
326 316 305 313 312 309 305 295 288 287 266 259 284 269 261 264 303 279 286 267 250 258 262 262 256 246 237 237 245 232 226 229 225 224 223 221 217 216
314 300 298 299 289 299 294 291 288 301 288 273 284 283 262 279 254 286 313 315 309 290 264 252 262 243 236 238 242 246 239 239 234 240 239 229 220 216
344 347 19 36 36 27 350 322 305 295 299 293 279 283 287 320 299 298 276 296 283 251 303 309 291 254 235 232 247 238 238 239 244 233 231 240 235 223
355 352 2 26 8 3 352 340 319 285 275 262 276 291 286 279 288 254 273 320 317 340 10 297 235 292 287 253 224 230 219 234 222 230 230 232 235 229
354 348 11 5 5 352 346 349 348 357 346 276 276 269 289 280 303 294 250 233 245 287 14 283 271 281 266 262 232 235 247 246 246 243 239 240 235 232
355 349 0 343 355 1 341 349 346 336 347 307 289 316 312 310 258 246 283 289 297 323 21 293 333 298 322 3 22 283 273 271 263 267 269 264 252 241
341 356 8 347 348 10 23 2 351 1 357 25 41 4 338 351 4 11 340 343 305 345 13 347 322 312 322 340 355 16 12 72 240 245 250 257 254 242
333 352 359 4 3 357 28 13 7 343 346 1 7 3 8 2 11 23 8 23 353 11 3 343 334 356 336 334 354 13 1 356 342 344 310 295 276 232
322 327 322 346 343 349 15 26 319 303 3 26 17 8 7 8 6 3 5 23 45 64 334 328 14 343 341 312 338 11 34 3 12 14 1 8 311 247
290 302 298 328 339 353 15 19 21 31 36 31 27 13 8 1 349 0 15 42 48 75 351 23 24 10 335 320 308 342 9 40 32 1 348 336 5 249
286 294 305 314 336 353 14 34 40 38 40 49 35 11 346 324 344 11 18 26 43 26 25 24 30 317 325 307 296 338 357 348 12 351 347 345 335 341
327 326 333 337 44 28 35 33 44 52 70 84 59 341 331 9 25 4 19 356 29 350 353 12 10 12 328 293 80 333 10 333 337 330 330 314 310 312
327 348 7 7 3 14 0 9 16 30 50 40 48 36 23 19 9 0 25 15 42 336 328 329 344 340 325 299 323 322 313 307 284 292 340 315 314 299
283 257 286 271 269 252 273 309 327 346 5 23 330 105 88 38 6 352 28 34 346 305 304 305 332 345 349 323 199 273 267 247 269 287 288 285 301 306
220 220 227 232 226 228 220 220 243 251 254 244 230 242 248 269 350 313 302 281 292 277 272 272 302 345 318 303 270 236 267 308 279 282 260 245 285 295
234 227 230 219 218 216 219 221 235 258 253 244 235 233 242 245 261 266 277 263 270 274 282 280 267 257 226 267 289 276 253 259 258 278 285 277 269 285
235 241 233 231 224 218 224 231 232 241 240 273 255 246 244 226 257 254 263 262 266 259 281 274 256 270 261 276 279 275 265 244 244 261 277 284 299 303
237 234 235 226 225 225 224 226 241 248 248 244 248 241 243 223 242 251 262 271 273 265 272 282 284 286 255 254 280 286 285 273 249 259 255 249 266 281
233 225 233 223 216 223 224 223 226 243 233 237 244 250 245 242 235 242 257 259 263 275 282 293 282 264 263 262 272 279 279 286 285 281 267 249 246 252